Torna al catalogo

QIANFAN-218

AttivoComunicazioniPO
NORAD 69817·PAYLOAD·🇨🇳 China

Lanciato Jul 4, 2026 da Taiyuan Satellite Launch Center

Loading…

Prossimi Passaggi (prossime 24 ore)

TLE

AggiornatoSource: Space-Track

Epoca: Sep 14, 2026, 21:28 UTC

1 69817U 26153T   26257.89477087 -.01864832  00000-0 -97321+0 0  9995
2 69817  88.9975 351.9368 0007859 327.8145  32.2563 14.18291046 10348

Traccia QIANFAN-218 in tempo reale con AllMySat

Download on the App Store